Tracking 35334 objects as of 13-Sep-2026
HD Live streaming from Space Station
objects crossing your sky now

STARLINK-3713


STARLINK-3713 is no longer on orbit
STARLINK-3713 is classified as:


NORAD ID: 52091
Int'l Code: 2022-029D
Launch date: March 19, 2022
Source: United States (US)
Launch site: AIR FORCE EASTERN TEST RANGE (AFETR)
Decay date: 2025-01-27
Your satellite tracking list
Your tracking list is empty




NASA's NSSDC Master Catalog

Two Line Element Set (TLE):
1 52091U 22029D   25027.15907331  .06200233  12200-4  70691-3 0  9998
2 52091  53.2017  87.3468 0004006 141.3896 320.1581 16.36147142159656
Source of the keplerian elements: AFSPC